| time (UTC) | temp F | wind direction | speed knots | gust knots | rain 1hr in | rain 24hr in | rain mn in | humidity % | barometer mb |
| 20260831221504 | 97 | 130 | 2.6 | 6.1 | 0.00 | 0.00 | 0.00 | 41 | 1011.1 |
| 20260831220006 | 97 | 60 | 2.6 | 7.8 | 0.00 | 0.00 | 0.00 | 42 | 1011.0 |
| 20260831214508 | 97 | 77 | 2.6 | 5.2 | 0.00 | 0.00 | 0.00 | 42 | 1011.3 |
| 20260831213005 | 98 | 138 | 1.7 | 6.1 | 0.00 | 0.00 | 0.00 | 40 | 1011.7 |
| 20260831211504 | 99 | 257 | 1.7 | 7.8 | 0.00 | 0.00 | 0.00 | 39 | 1011.7 |
| 20260831210005 | 99 | 101 | 3.5 | 9.6 | 0.00 | 0.00 | 0.00 | 38 | 1012.0 |
| 20260831204503 | 99 | 102 | 2.6 | 7.0 | 0.00 | 0.00 | 0.00 | 40 | 1012.2 |
| 20260831203002 | 98 | 47 | 0.9 | 8.7 | 0.00 | 0.00 | 0.00 | 39 | 1012.6 |
| 20260831201503 | 98 | 46 | 2.6 | 7.8 | 0.00 | 0.00 | 0.00 | 42 | 1012.8 |
| 20260831200008 | 98 | 79 | 1.7 | 7.8 | 0.00 | 0.00 | 0.00 | 41 | 1013.0 |
| 20260831194504 | 97 | 63 | 0.9 | 5.2 | 0.00 | 0.00 | 0.00 | 44 | 1013.2 |
| 20260831193004 | 95 | 61 | 1.7 | 7.8 | 0.00 | 0.00 | 0.00 | 46 | 1013.4 |
| 20260831191503 | 94 | 104 | 2.6 | 7.0 | 0.00 | 0.00 | 0.00 | 50 | 1013.6 |
| 20260831190006 | 95 | 123 | 1.7 | 8.7 | 0.00 | 0.00 | 0.00 | 49 | 1013.7 |
| 20260831184502 | 95 | 34 | 2.6 | 8.7 | 0.00 | 0.00 | 0.00 | 49 | 1014.0 |
| 20260831183003 | 95 | 80 | 2.6 | 10.4 | 0.00 | 0.00 | 0.00 | 50 | 1014.1 |
| 20260831181503 | 95 | 94 | 1.7 | 7.8 | 0.00 | 0.00 | 0.00 | 52 | 1014.1 |
| 20260831180014 | 93 | 251 | 0.9 | 7.0 | 0.00 | 0.00 | 0.00 | 53 | 1014.3 |
| 20260831174503 | 93 | 105 | 1.7 | 8.7 | 0.00 | 0.00 | 0.00 | 53 | 1014.6 |
| 20260831173005 | 93 | 90 | 2.6 | 7.8 | 0.00 | 0.00 | 0.00 | 54 | 1014.8 |
| 20260831171503 | 92 | 245 | 0.9 | 6.1 | 0.00 | 0.00 | 0.00 | 58 | 1015.0 |
| 20260831170005 | 92 | 130 | 2.6 | 6.1 | 0.00 | 0.00 | 0.00 | 57 | 1014.9 |
| 20260831164502 | 90 | 237 | 0.9 | 5.2 | 0.00 | 0.00 | 0.00 | 61 | 1015.0 |
| 20260831163003 | 90 | 225 | 2.6 | 6.1 | 0.00 | 0.00 | 0.00 | 63 | 1015.1 |
| 20260831161503 | 88 | 246 | 1.7 | 5.2 | 0.00 | 0.00 | 0.00 | 66 | 1015.1 |
| 20260831160005 | 87 | 230 | 0.9 | 6.1 | 0.00 | 0.00 | 0.00 | 69 | 1014.9 |
| 20260831154503 | 87 | 230 | 0.9 | 6.1 | 0.00 | 0.00 | 0.00 | 71 | 1015.0 |
| 20260831153003 | 86 | 117 | 2.6 | 7.0 | 0.00 | 0.00 | 0.00 | 71 | 1014.9 |
| 20260831151503 | 85 | 221 | 2.6 | 8.7 | 0.00 | 0.00 | 0.00 | 73 | 1014.8 |
| 20260831150005 | 86 | 342 | 0.9 | 5.2 | 0.00 | 0.00 | 0.00 | 72 | 1014.8 |
| 20260831144502 | 84 | 205 | 0.9 | 3.5 | 0.00 | 0.00 | 0.00 | 78 | 1014.6 |
| 20260831143003 | 82 | 237 | 1.7 | 6.1 | 0.00 | 0.00 | 0.00 | 81 | 1014.6 |
| 20260831141502 | 82 | 252 | 0.9 | 4.3 | 0.00 | 0.00 | 0.00 | 84 | 1014.5 |
| 20260831140007 | 80 | 213 | 0.9 | 6.1 | 0.00 | 0.00 | 0.00 | 86 | 1014.3 |
| 20260831134503 | 79 | 207 | 0.9 | 3.5 | 0.00 | 0.00 | 0.00 | 90 | 1014.3 |
| 20260831133002 | 78 | 240 | 0.9 | 3.5 | 0.00 | 0.00 | 0.00 | 91 | 1014.2 |
| 20260831131503 | 77 | 225 | 0.0 | 1.7 | 0.00 | 0.00 | 0.00 | 93 | 1014.1 |
| 20260831130005 | 77 | 225 | 0.0 | 1.7 | 0.00 | 0.00 | 0.00 | 93 | 1014.0 |
| 20260831124503 | 76 | 225 | 0.0 | 1.7 | 0.00 | 0.00 | 0.00 | 94 | 1013.8 |
| 20260831123003 | 76 | 225 | 0.0 | 1.7 | 0.00 | 0.00 | 0.00 | 93 | 1013.8 |
| 20260831121505 | 76 | 225 | 0.0 | 0.9 | 0.00 | 0.00 | 0.00 | 93 | 1013.7 |
| 20260831120007 | 76 | 225 | 0.0 | 0.9 | 0.00 | 0.00 | 0.00 | 92 | 1013.6 |
| 20260831114506 | 76 | 225 | 0.0 | 0.9 | 0.00 | 0.00 | 0.00 | 92 | 1013.6 |
| 20260831113002 | 77 | 225 | 0.0 | 2.6 | 0.00 | 0.00 | 0.00 | 92 | 1013.7 |
| 20260831111503 | 77 | 225 | 0.0 | 2.6 | 0.00 | 0.00 | 0.00 | 91 | 1013.6 |
| 20260831110005 | 77 | 225 | 0.0 | 2.6 | 0.00 | 0.00 | 0.00 | 91 | 1013.5 |
| 20260831104502 | 77 | 225 | 0.0 | 2.6 | 0.00 | 0.00 | 0.00 | 91 | 1013.4 |
| 20260831103002 | 77 | 232 | 0.0 | 2.6 | 0.00 | 0.00 | 0.00 | 90 | 1013.5 |
| 20260831101502 | 77 | 213 | 0.0 | 2.6 | 0.00 | 0.00 | 0.00 | 90 | 1013.5 |
| 20260831100004 | 77 | 238 | 0.0 | 3.5 | 0.00 | 0.00 | 0.00 | 90 | 1013.6 |
| 20260831094502 | 77 | 238 | 0.9 | 3.5 | 0.00 | 0.00 | 0.00 | 90 | 1013.6 |
| 20260831093001 | 77 | 220 | 0.9 | 6.1 | 0.00 | 0.00 | 0.00 | 90 | 1013.5 |
| 20260831091502 | 77 | 226 | 0.9 | 3.5 | 0.00 | 0.00 | 0.00 | 89 | 1013.4 |
| 20260831090003 | 78 | 219 | 0.9 | 4.3 | 0.00 | 0.00 | 0.00 | 88 | 1013.4 |
| 20260831084600 | 78 | 220 | 1.7 | 7.0 | 0.00 | 0.00 | 0.00 | 88 | 1013.4 |
| 20260831084501 | 78 | 221 | 0.9 | 6.1 | 0.00 | 0.00 | 0.00 | 88 | 1013.5 |
| 20260831083001 | 78 | 221 | 0.9 | 4.3 | 0.00 | 0.00 | 0.00 | 88 | 1013.5 |
| 20260831081501 | 78 | 167 | 0.9 | 2.6 | 0.00 | 0.00 | 0.00 | 87 | 1013.6 |
| 20260831080004 | 78 | 271 | 0.0 | 3.5 | 0.00 | 0.00 | 0.00 | 86 | 1013.5 |
| 20260831074501 | 79 | 250 | 0.9 | 4.3 | 0.00 | 0.00 | 0.00 | 85 | 1013.5 |
| 20260831073004 | 79 | 213 | 0.0 | 2.6 | 0.00 | 0.00 | 0.00 | 83 | 1013.6 |
| 20260831071502 | 79 | 202 | 0.0 | 2.6 | 0.00 | 0.00 | 0.00 | 81 | 1013.7 |
| 20260831070003 | 80 | 223 | 0.9 | 5.2 | 0.00 | 0.00 | 0.00 | 79 | 1013.6 |
| 20260831064501 | 80 | 139 | 0.0 | 2.6 | 0.00 | 0.00 | 0.00 | 78 | 1013.8 |
| 20260831063001 | 81 | 94 | 0.9 | 6.1 | 0.00 | 0.00 | 0.00 | 77 | 1013.8 |
| 20260831061504 | 81 | 239 | 0.9 | 4.3 | 0.00 | 0.00 | 0.00 | 76 | 1013.5 |
| 20260831060006 | 82 | 120 | 0.0 | 4.3 | 0.00 | 0.00 | 0.00 | 76 | 1013.5 |
| 20260831054509 | 82 | 234 | 0.0 | 7.0 | 0.00 | 0.00 | 0.00 | 75 | 1013.3 |
| 20260831053004 | 83 | 61 | 0.0 | 4.3 | 0.00 | 0.00 | 0.00 | 73 | 1013.2 |
| 20260831051507 | 83 | 101 | 0.0 | 3.5 | 0.00 | 0.00 | 0.00 | 72 | 1013.1 |
| 20260831050008 | 84 | 81 | 0.0 | 4.3 | 0.00 | 0.00 | 0.00 | 70 | 1013.1 |
| 20260831044504 | 84 | 97 | 0.9 | 2.6 | 0.00 | 0.00 | 0.00 | 69 | 1012.9 |
| 20260831043004 | 85 | 62 | 0.0 | 6.1 | 0.00 | 0.00 | 0.00 | 67 | 1012.9 |
| 20260831041504 | 85 | 86 | 0.9 | 7.0 | 0.00 | 0.00 | 0.00 | 66 | 1012.9 |
| 20260831040015 | 85 | 119 | 1.7 | 6.1 | 0.00 | 0.00 | 0.00 | 65 | 1013.0 |
| 20260831034504 | 86 | 81 | 1.7 | 5.2 | 0.00 | 0.00 | 0.00 | 63 | 1012.8 |
| 20260831033004 | 86 | 140 | 2.6 | 7.0 | 0.00 | 0.00 | 0.00 | 62 | 1012.6 |
| 20260831031503 | 87 | 40 | 1.7 | 6.1 | 0.00 | 0.00 | 0.00 | 62 | 1012.5 |
| 20260831030007 | 87 | 118 | 1.7 | 7.0 | 0.00 | 0.00 | 0.00 | 61 | 1012.1 |
| 20260831024504 | 88 | 103 | 2.6 | 7.8 | 0.00 | 0.00 | 0.00 | 61 | 1012.1 |
| 20260831023006 | 88 | 32 | 0.9 | 5.2 | 0.00 | 0.00 | 0.00 | 60 | 1011.8 |
| 20260831021504 | 89 | 31 | 0.9 | 7.0 | 0.00 | 0.00 | 0.00 | 58 | 1011.4 |
| 20260831020007 | 90 | 92 | 2.6 | 9.6 | 0.00 | 0.00 | 0.00 | 54 | 1011.4 |
| 20260831014504 | 89 | 53 | 1.7 | 4.3 | 0.00 | 0.00 | 0.00 | 51 | 1011.0 |
| 20260831013004 | 89 | 62 | 0.9 | 2.6 | 0.00 | 0.00 | 0.00 | 50 | 1010.6 |
| 20260831011503 | 90 | 67 | 0.9 | 2.6 | 0.00 | 0.00 | 0.00 | 50 | 1010.5 |
| 20260831010010 | 91 | 88 | 0.9 | 2.6 | 0.00 | 0.00 | 0.00 | 49 | 1010.6 |
| 20260831004504 | 92 | 74 | 0.9 | 5.2 | 0.00 | 0.00 | 0.00 | 47 | 1010.6 |
| 20260831003004 | 92 | 90 | 0.9 | 5.2 | 0.00 | 0.00 | 0.00 | 46 | 1010.5 |
| 20260831001506 | 94 | 60 | 1.7 | 6.1 | 0.00 | 0.00 | 0.00 | 45 | 1010.5 |
| 20260831000007 | 95 | 69 | 1.7 | 6.1 | 0.00 | 0.00 | 0.00 | 44 | 1010.4 |
| 20260830234508 | 96 | 126 | 1.7 | 5.2 | 0.00 | 0.00 | 0.00 | 42 | 1010.4 |
| 20260830233003 | 96 | 60 | 1.7 | 7.0 | 0.00 | 0.00 | 0.00 | 41 | 1010.5 |
| 20260830231503 | 96 | 75 | 1.7 | 8.7 | 0.00 | 0.00 | 0.00 | 40 | 1010.5 |
| 20260830230006 | 97 | 82 | 1.7 | 4.3 | 0.00 | 0.00 | 0.00 | 39 | 1010.5 |
| 20260830224503 | 97 | 43 | 1.7 | 5.2 | 0.00 | 0.00 | 0.00 | 39 | 1010.6 |
| 20260830223003 | 97 | 62 | 1.7 | 5.2 | 0.00 | 0.00 | 0.00 | 41 | 1010.7 |